Location: Newark
(41.9000°N, 12.4833°E)
Time: 03:34:01
(UTC+00:00)

nSIGHT-1 - Visible Passes

Search period start: 26 May 2019 00:00
Search period end: 05 June 2019 00:00
Orbit: 353 x 362 km, 51.6° (Epoch: 25 May)

Date Brightness Start Highest point End Pass type
(mag) Time Alt. Az. Time Alt. Az. Time Alt. Az.
26 May ? 19:53:20 10° NW 19:56:14 57° NNE 19:57:46 24° ESE visible
27 May ? 20:21:30 10° WNW 20:24:18 39° SW 20:24:40 37° SSW visible
28 May ? 19:14:05 10° NW 19:17:01 70° NNE 19:19:54 10° ESE visible
28 May ? 20:50:59 10° WSW 20:51:35 11° WSW 20:51:35 11° WSW visible
29 May ? 19:42:18 10° WNW 19:44:59 31° SW 19:46:51 16° SSE visible
